星链-3243 (STARLINK-3243 )

导读

STARLINK-3243是美国太空探索技术公司(SpaceX)星链(Starlink)星座中的卫星,于2022年1月19日发射升空,属于星链第二代组网卫星,核心任务是为全球提供高速低延迟互联网覆盖服务,填补偏远地区网络空白,目前已进入预定轨道,参与星座运行组网。

Basic Information
目录编号:
51116
目录名称:
STARLINK-3243
国际标识:
2022-005N
轨道中心:
EARTH
卫星名称:
星链-3243
卫星全名:
星链-3243 (STARLINK-3243 )
卫星状态:
在轨 (已飞行1610 天)
发射日期:
2022-01-19 UTC
国别 :
美国 (US)
星等 :
--
Orbit Information
数据来源 国际轨道数据 AOE轨道数据
星历时间 2026-06-17T15:37:30+0800
16小时前
查看轨道信息
2026-06-15T03:00:00+0800
3天前
查看轨道信息
半长轴 6917.914km 6917.9km
偏心率 0.0001228 0.0001127
轨道倾角 53.161° 53.157°
近地点辐角 83.400° 75.541°
升交点赤经 201.749° 213.103°
平近点角 276.713° 236.113°
近地点 538.927km 538.983km
远地点 540.627km 540.543km
周期 95.438分钟 95.438分钟
每日圈数 15.088291 15.088339
Detailed Information
固有亮度:
5
最大亮度:
2.5
卫星平台:
Starlink v1.5
覆盖范围:
全球
运营商:
太空探索技术公司
运营商所在国:
美国
制造商(研发单位):
太空探索技术公司
制造商所在国:
美国
使用方式:
暂无
Satellite Introduction
星链(Starlink)计划是由太空探索技术公司(SpaceX)提出的一个巨型低轨卫星互联网星座项目,计划在2019年至2024年间在太空搭建由约1.2万颗卫星组成的“星链”网络,其中1584颗将部署在地球上空550千米处的近地轨道,并从2020年开始工作。该卫星仍在工作。
2D Orbit Map
3D Orbit Map
Orbit Altitude Analysis Chart
Orbit Inclination Analysis Chart
Orbit Comprehensive Analysis Chart
View Comprehensive Chart